Location: Unspecified
(42.3650°N, 71.1030°W)
Time: 15:14:59
(UTC+00:00)

Explorer 11/Cluster Stage 4 - Pass Details

Date: 22 June 2024
Orbit: 465 x 1214 km, 28.8° (Epoch: 22 July)

Event Time Altitude Azimuth Distance (km) Brightness Sun altitude
Rises 01:36:27 0° 232° (SW) 4,119 10.3 -10.9°
Reaches altitude 10° 01:39:57 10° 220° (SW) 3,151 9.6 -11.4°
Maximum altitude 01:46:05 25° 170° (S) 2,170 8.3 -12.2°
Enters shadow 01:50:09 16° 129° (SE) 2,564 8.6 -12.6°
Drops below altitude 10° 01:51:50 10° 119° (ESE) 2,936 - -12.9°
Sets 01:54:58 0° 106° (ESE) 3,785 - -13.2°
